Weather History for Imperial, NE

Change the Weather History Date:

Tuesday, December 6, 2011

  Actual Average Record
Temperature  
Mean Temperature 8 °F 30 °F  
Max Temperature 23 °F 43 °F 79 °F (1939)
Min Temperature -7 °F 17 °F -15 °F (1972)
Degree Days  
Heating Degree Days 57 35  
Month to date heating degree days 280 207  
Cooling Degree Days 0 0  
Month to date cooling degree days 0 0  
Year to date cooling degree days 1096 963  
Moisture  
Dew Point 3 °F    
Average Humidity 75    
Maximum Humidity 87    
Minimum Humidity 62    
Precipitation  
Precipitation 0.00 in 0.02 in 0.45 in (1919)
Sea Level Pressure  
Sea Level Pressure 30.32 in    
Wind  
Wind Speed 8 mph (WSW)    
Max Wind Speed 13 mph    
Max Gust Speed 17 mph    
Visibility 10 miles    
Events      
T = Trace of Precipitation, MM = Missing Value Source: NWS Daily Summary

Daily Weather History Graph

Daily Weather History Graph

Search for Another Location

Airport:

Trip Planner

Search our weather history database for the weather conditions in past years. The results will help you decide how hot, cold, wet, or windy it might be!

Date:

Astronomy

Dec. 06, 2011 Rise Set
Actual Time 6:55 AM MST 4:19 PM MST
Civil Twilight 6:24 AM MST 4:50 PM MST
Nautical Twilight 5:50 AM MST 5:24 PM MST
Astronomical Twilight 5:17 AM MST 5:57 PM MST
Moon 1:48 PM MST (12/6) 3:15 AM MST (12/6)
Length of Visible Light 10h 25m
Length of Day
9h 24m
Waxing Gibbous, 87% of the Moon is Illuminated
Dec 6
Waxing Gibbous
Dec 10
Full
Dec 17
Last Quarter
Dec 24
New
Dec 31
First Quarter

Hourly Weather History & Observations

Time (MST) Temp. Windchill Dew Point Humidity Pressure Visibility Wind Dir Wind Speed Gust Speed Precip Events Conditions
12:53 AM -0.9 °F -12.7 °F -6.0 °F 79% 30.50 in 10.0 mi West 5.8 mph - N/A   Clear
1:53 AM -2.0 °F -15.4 °F -7.1 °F 79% 30.50 in 10.0 mi West 6.9 mph - N/A   Clear
2:53 AM -4.0 °F -14.6 °F -8.0 °F 83% 30.48 in 10.0 mi West 4.6 mph - N/A   Clear
3:53 AM -5.1 °F -17.6 °F -9.9 °F 80% 30.46 in 10.0 mi WSW 5.8 mph - N/A   Clear
4:53 AM -4.0 °F -17.8 °F -8.0 °F 83% 30.44 in 10.0 mi WSW 6.9 mph - N/A   Clear
5:53 AM -5.1 °F -19.1 °F -9.0 °F 83% 30.45 in 10.0 mi SW 6.9 mph - N/A   Clear
6:53 AM -5.1 °F -20.4 °F -9.9 °F 80% 30.44 in 10.0 mi SW 8.1 mph - N/A   Clear
7:53 AM -2.9 °F -13.3 °F -8.0 °F 79% 30.43 in 10.0 mi WSW 4.6 mph - N/A   Clear
8:53 AM 1.9 °F -7.6 °F -2.9 °F 80% 30.40 in 10.0 mi WSW 4.6 mph - N/A   Clear
9:53 AM 8.1 °F -4.3 °F 1.9 °F 76% 30.38 in 10.0 mi SW 8.1 mph - N/A   Clear
10:53 AM 12.9 °F 3.8 °F 6.1 °F 74% 30.33 in 10.0 mi SW 5.8 mph - N/A   Clear
11:53 AM 18.0 °F 8.7 °F 8.1 °F 65% 30.29 in 10.0 mi SW 6.9 mph - N/A   Clear
12:53 PM 21.0 °F 13.4 °F 10.0 °F 63% 30.25 in 10.0 mi SW 5.8 mph - N/A   Clear
1:53 PM 21.9 °F 11.0 °F 12.0 °F 66% 30.23 in 10.0 mi South 10.4 mph - N/A   Clear
2:53 PM 21.9 °F 13.4 °F 12.0 °F 66% 30.22 in 10.0 mi South 6.9 mph - N/A   Clear
3:53 PM 19.9 °F 9.3 °F 10.9 °F 68% 30.22 in 10.0 mi SSW 9.2 mph - N/A   Clear
4:53 PM 17.1 °F 5.8 °F 8.1 °F 68% 30.22 in 10.0 mi SSW 9.2 mph - N/A   Clear
5:53 PM 16.0 °F 7.4 °F 8.1 °F 71% 30.24 in 10.0 mi WSW 5.8 mph - N/A   Clear
6:53 PM 12.0 °F 0.5 °F 6.1 °F 77% 30.25 in 10.0 mi WSW 8.1 mph - N/A   Clear
7:53 PM 12.9 °F 0.7 °F 5.0 °F 71% 30.25 in 10.0 mi WSW 9.2 mph - N/A   Clear
8:53 PM 16.0 °F 3.6 °F 7.0 °F 68% 30.22 in 10.0 mi West 10.4 mph - N/A   Clear
9:53 PM 17.1 °F 4.3 °F 10.0 °F 74% 30.20 in 10.0 mi West 11.5 mph - N/A   Clear
10:53 PM 19.9 °F 7.9 °F 12.0 °F 71% 30.19 in 10.0 mi West 11.5 mph - N/A   Clear
11:53 PM 19.9 °F 8.6 °F 12.0 °F 71% 30.18 in 10.0 mi West 10.4 mph - N/A   Clear